Location: ???
(35.5616°N, 139.7977°E)
Time: 01:53:43
(UTC+00:00)

Cosmos 1190 Rocket - Pass Details

Date: 17 November 2025
Orbit: 752 x 775 km, 74.1° (Epoch: 09 December)

Event Time Altitude Azimuth Distance (km) Brightness Sun altitude
Exits shadow 19:04:33 78° 30° (NNE) 784 3.9 -27.3°
Maximum altitude 19:04:48 81° 72° (ENE) 776 3.9 -27.2°
Drops below altitude 10° 19:09:59 10° 160° (SSE) 2,280 6.7 -26.2°
Sets 19:12:20 0° 162° (SSE) 3,199 7.5 -25.7°
